Regional Weather Roundup
Issued by NWS Cleveland, OH

Home | Current Version | Previous Version | Text Only | Print | Product List | Glossary Off
Versions: 1 2 3 4 5 6 7 8 9 10 11 12 13 14 15 16 17 18 19 20 21 22 23 24 25 26 27 28 29 30 31 32 33 34 35 36 37 38 39 40 41 42 43 44 45 46 47 48 49 50

000
ASUS41 KCLE 221610
RWRCLE
OHIO REGIONAL WEATHER ROUNDUP
NATIONAL WEATHER SERVICE WILMINGTON, OH
1200 PM EDT FRI AUG 22 2014

NOTE: "FAIR" INDICATES FEW OR NO CLOUDS BELOW 12,000 FEET WITH NO
SIGNIFICANT WEATHER AND/OR OBSTRUCTIONS TO VISIBILITY.

OHZ001>008-015>018-024>027-034-035-043-044-221700-
   NORTHWEST OHIO

CITY           SKY/WX    TMP DP  RH WIND       PRES   REMARKS
DEFIANCE       MOSUNNY   79  71  76 VRB3      29.98S
FINDLAY        PTSUNNY   81  70  69 CALM      29.97F
TOLEDO EXPRESS PTSUNNY   78  70  76 CALM      29.97F
TOLEDO METCALF CLOUDY    78  69  73 SW7       29.98F
LIMA           PTSUNNY   79  72  79 CALM      29.98F
$$

OHZ009>014-019>023-028>033-038-089-221700-
   NORTHEAST OHIO

CITY           SKY/WX    TMP DP  RH WIND       PRES   REMARKS
CLE-HOPKINS    PTSUNNY   79  71  76 N8        29.99F
CLE-LAKEFRONT  MOSUNNY   76  70  82 NW3       29.96F
CUY CO. ARPT   PTSUNNY   81  73  78 CALM      30.00S
LORAIN-ELYRIA  SUNNY     83  70  64 CALM      29.98F
ASHTABULA      PTSUNNY   76  70  82 CALM      30.00F
AKRON-CANTON   PTSUNNY   75  69  81 CALM      30.00F
WOOSTER        MOSUNNY   81  70  69 CALM      30.00F
MANSFIELD      PTSUNNY   79  70  74 VRB6      30.01F
YOUNGSTOWN     PTSUNNY   74  70  87 CALM      30.01F FOG
$$

OHZ042-051>053-060>062-070>072-077>081-221700-
  SOUTHWEST OHIO

CITY           SKY/WX    TMP DP  RH WIND       PRES   REMARKS
CINC-COVINGTON CLOUDY    77  72  84 W7        30.03
CINC-LUNKEN    CLOUDY    77  74  90 SW3       30.01F
HAMILTON       LGT RAIN  75  73  93 CALM      30.01F FOG
DAYTON         CLOUDY    77  72  84 SW8       30.00S
WRIGHT-PAT AFB PTSUNNY   75  73  92 SW7       29.99S
DAYTON GENERAL CLOUDY    73  72  96 SW7       30.00S FOG
WILMINGTON     LGT RAIN  73  71  93 S6        30.01F FOG
$$

OHZ036-037-039>041-045>050-054>059-063>069-073>076-082>088-221700-
  CENTRAL AND SOUTHEAST OHIO

CITY           SKY/WX    TMP DP  RH WIND       PRES   REMARKS
COLUMBUS       CLOUDY    78  70  76 S6        29.99F
OSU AIRPORT    PTSUNNY   76  70  82 S6        29.99F
BOLTON FIELD   PTSUNNY   73  72  94 S5        30.01F
RICKENBACK AFB CLOUDY    76  67  74 S7        30.00F
NEWARK         PTSUNNY   77  70  79 S3        30.00F
MARION         PTSUNNY   79  70  74 NW5       30.00F
LANCASTER      CLOUDY    77  70  79 S3        30.01F
ZANESVILLE     PTSUNNY   77  69  76 VRB3      30.01F
NEW PHILLY     CLOUDY    74  71  91 SW5       30.01F
$$



USA.gov is the U.S. government's official web portal to all federal, state and local government web resources and services.